Back to catalog

FENGYUN 1C DEB

AlivePO
NORAD 30744·DEBRIS·🇨🇳 China

Launched May 10, 1999 from Taiyuan Satellite Launch Center

Loading…

Next Passes (next 24 hours)

TLE

FreshSource: Space-Track

Epoch: Sep 14, 2026, 11:43 UTC

1 30744U 99025ATE 26257.48856670  .00162965  00000-0  44855-2 0  9996
2 30744  98.7280  86.7308 0000485 208.2133 182.5318 15.36495909 22421

Track FENGYUN 1C DEB in real time with AllMySat

Download on the App Store